sat.trackr.live / text

‹ back to catalog

STARLINK-32717

NORAD 62491 · 2025-003E

PAYLOAD ACTIVE UNKNOWN

§ Identity

Operator
Country
US
Launch date
2025-01-06
Launch site
AFETR
Launch vehicle
Mass (kg)
RCS (m²)

Purposes: comms

External: N2YO · Heavens-Above · Gunter

§ Orbital elements

Epoch: 2026-09-21T01:37:11.244864Z

Period
94.27 min
Inclination
43.0011°
Eccentricity
0.0001354
Mean motion
15.27586806 rev/d
Perigee alt
482.1 km
Apogee alt
484.0 km
Semi-major
6,861.2 km
B*
3.4258e-4
RAAN
265.4483°
Arg perigee
268.8339°
Mean anomaly
91.2357°
Rev number
9,655

§ Raw data

STARLINK-327171 62491U 25003E   26264.06749126  .00009179  00000+0  34258-3 0  99972 62491  43.0011 265.4483 0001354 268.8339  91.2357 15.27586806 96557

JSON: /api/v1/satellites/62491 · /tle

For live sub-satellite position, see the globe view (requires WebGL).

§ Visibility from observer

Set your observer location to see the next 7 days of passes ≥ 10°. The values pass through the URL so the page stays shareable.

No JS? Fill the form by hand. The geolocation button needs JavaScript.